Flag for United Kingdom Weather past 2 weeks in Canterbury, England, United Kingdom

Now
39 °F

Chilly.


Feels Like: 31 °F
Forecast: 46 / 50 °F
Wind: 16 mph from Southwest

Location: Manston

Current Time: Dec 20, 2014 at 3:57:12 AM

Latest Report: Dec 20, 2014 at 3:00 AM


Visibility: 13 mi

Pressure: 30.23 "Hg

Humidity: 88%

Dew point: 36 °F

Location of CanterburyLocation

Historic Weather in Canterbury — Graph

°F

Canterbury temperature yesterday

Maximum temperature yesterday: 54 °F (at 1:00 AM)
Minimum temperature yesterday: 40 °F (at 9:00 PM)
Average temperature yesterday: 48 °F

Past Weeks' High & Low Weather Summary

 TemperatureHumidityPressure
High57 °F (Dec 18, 12:00 PM)98% (Dec 17, 6:00 AM)30.41 "Hg (Dec 17, 6:00 AM)
Low31 °F (Dec 14, 3:00 AM)61% (Dec 10, 1:00 PM)29.29 "Hg (Dec 12, 6:00 AM)
Average43 °F85%29.95 "Hg
* Reported Dec 5 2:00 AM — Dec 20 2:00 AM, Canterbury, Weather by CustomWeather, © 2014

Note: Actual official high and low records may vary slightly from our data, if they occured in-between our weather recording intervals... More about our weather records

Advertising

Canterbury weather history for previous 24 hours

 ConditionsComfort  
Time TempWeatherWind HumidityBarometerVisibility
2:00 AM
Dec 20
40 °FQuite cool.16 mph86%30.22 "Hg13 mi
1:00 AM40 °FChilly.14 mph85%30.22 "Hg14 mi
12:00 AM40 °FChilly.13 mph84%30.23 "Hg13 mi
11:00 PM
Dec 19
40 °FQuite cool.13 mph83%30.21 "Hg16 mi
10:00 PM40 °FQuite cool.14 mph84%30.20 "Hg14 mi
9:00 PM40 °FChilly.10 mph83%30.19 "Hg17 mi
8:00 PM41 °FQuite cool.10 mph81%30.18 "Hg19 mi
7:00 PM41 °FQuite cool.12 mph80%30.15 "Hg19 mi
6:00 PM41 °FQuite cool.9 mph78%30.12 "Hg16 mi
5:00 PM44 °FQuite cool.7 mph73%30.10 "Hg22 mi
4:00 PM43 °FQuite cool.8 mph76%30.06 "Hg25 mi
3:00 PM47 °FCool.12 mph66%30.04 "Hg19 mi
2:00 PM48 °FCool.16 mph66%30.01 "Hg17 mi
1:00 PM49 °FCool.15 mph71%29.99 "Hg25 mi
12:00 PM48 °FCool.17 mph74%29.98 "Hg16 mi
11:00 AM49 °FCool.15 mph75%29.96 "Hg22 mi
10:00 AM48 °FCool.8 mph95%29.92 "Hg22 mi
9:00 AM48 °FCool.12 mph97%29.88 "Hg10 mi
8:00 AM54 °FCool.17 mph91%29.82 "Hg31 mi
7:00 AM54 °FCool.22 mph91%29.80 "Hg28 mi
6:00 AM54 °FCool.22 mph92%29.79 "Hg31 mi
5:00 AM54 °FLots of rain. Overcast.24 mph93%29.79 "Hg7 mi
4:00 AM54 °FCool.24 mph89%29.81 "Hg22 mi
3:00 AM54 °FLots of rain. Overcast.22 mph93%29.83 "Hg6 mi
Weather by CustomWeather, © 2014

See weather overviewHow to use our weather pages